AZG3MD UBBB-EBLG

Flight info

Callsign AZG3MD
Flight time N/A
Altitude 32000
Route AGDAM M747 LUSAL M11 REBLO UM11 CRM UL746 ODERO L746 LUGEB DCT VEVIN DCT EKSUN DCT PELUR DCT SIB DCT BUXLE DCT BKS DCT DODAR DCT BALUX DCT TORNO DCT BEGLA DCT DEXIT DCT INBED DCT LOHRE DCT BOMBI DCT IDOVI Z104 GESLO
Aircraft B77L/H-SDE2E3FGHIJ5LORVWXY/LB1D1

Departure

Time 2026-05-04 09:11
Airport Heydar Aliyev International Airport (UBBB)

Arrival

Time N/A
Airport Liège Airport (EBLG)
Time Latitude Longitude Altitude Speed Heading
2026-05-04 08:33 40.45913 50.05860 22 ft 0 kts 269°
2026-05-04 09:01 40.45961 50.05969 22 ft 0 kts 179°
2026-05-04 09:04 40.45958 50.05969 22 ft 1 kts 179°
2026-05-04 09:04 40.45934 50.05969 22 ft 4 kts 179°
2026-05-04 09:04 40.45887 50.05970 22 ft 7 kts 175°
2026-05-04 09:04 40.45847 50.06025 22 ft 10 kts 101°
2026-05-04 09:05 40.45881 50.06098 22 ft 12 kts
2026-05-04 09:05 40.45977 50.06101 22 ft 15 kts
2026-05-04 09:05 40.46098 50.06099 22 ft 18 kts 359°
2026-05-04 09:05 40.46237 50.06096 22 ft 20 kts 359°
2026-05-04 09:06 40.46390 50.06093 22 ft 22 kts 359°
2026-05-04 09:07 40.47360 50.06081 22 ft 19 kts 359°
2026-05-04 09:08 40.47501 50.06079 22 ft 20 kts 359°
2026-05-04 09:08 40.47647 50.06076 22 ft 20 kts 359°
2026-05-04 09:08 40.47792 50.06073 22 ft 20 kts 359°
2026-05-04 09:08 40.47942 50.06070 22 ft 21 kts 359°
2026-05-04 09:09 40.48095 50.06068 22 ft 21 kts 360°
2026-05-04 09:09 40.48243 50.06067 22 ft 21 kts 360°
2026-05-04 09:09 40.48401 50.06066 22 ft 21 kts 359°
2026-05-04 09:09 40.48491 50.06124 22 ft 15 kts 63°
2026-05-04 09:10 40.48489 50.06257 22 ft 14 kts 134°
2026-05-04 09:10 40.48360 50.06285 22 ft 36 kts 178°
2026-05-04 09:10 40.47758 50.06296 22 ft 132 kts 179°
2026-05-04 09:10 40.46527 50.06322 320 ft 196 kts 179°
2026-05-04 09:11 40.45276 50.06356 1895 ft 176 kts 181°
2026-05-04 09:11 40.44004 50.06357 2641 ft 184 kts 182°
2026-05-04 09:11 40.42645 50.06372 3154 ft 203 kts 182°
2026-05-04 09:11 40.41174 50.06395 3777 ft 218 kts 182°
2026-05-04 09:12 40.39558 50.06421 4476 ft 233 kts 182°
2026-05-04 09:12 40.37845 50.06446 5202 ft 247 kts 184°
2026-05-04 09:14 40.28492 49.97307 8019 ft 261 kts 256°
2026-05-04 09:14 40.28293 49.94910 8030 ft 264 kts 263°
2026-05-04 09:14 40.28217 49.92439 8027 ft 265 kts 264°
2026-05-04 09:14 40.28161 49.89926 8019 ft 265 kts 264°
2026-05-04 09:15 40.28107 49.87471 8024 ft 264 kts 264°
2026-05-04 09:15 40.28052 49.85008 8017 ft 265 kts 264°
2026-05-04 09:15 40.27996 49.82570 8016 ft 265 kts 264°
2026-05-04 09:15 40.27941 49.80181 8016 ft 265 kts 264°
2026-05-04 09:17 40.27444 49.59890 11134 ft 297 kts 265°
2026-05-04 09:18 40.27371 49.57089 11703 ft 312 kts 265°
2026-05-04 09:18 40.27293 49.54063 12286 ft 328 kts 265°
2026-05-04 09:18 40.27210 49.50883 12899 ft 343 kts 265°
2026-05-04 09:18 40.27126 49.47699 13507 ft 356 kts 266°
2026-05-04 09:19 40.27032 49.44192 14188 ft 368 kts 266°
2026-05-04 09:19 40.26944 49.40816 15062 ft 373 kts 265°
2026-05-04 09:19 40.26848 49.37099 16143 ft 374 kts 265°
2026-05-04 09:19 40.26754 49.33586 16969 ft 380 kts 265°
2026-05-04 09:20 40.26661 49.30112 17740 ft 386 kts 265°
2026-05-04 09:20 40.26562 49.26463 18640 ft 389 kts 265°
2026-05-04 09:20 40.26649 49.22870 19464 ft 395 kts 272°
2026-05-04 09:20 40.27173 49.19289 20147 ft 406 kts 281°
2026-05-04 09:21 40.28046 49.15754 20779 ft 415 kts 283°
2026-05-04 09:21 40.28993 49.12145 21436 ft 421 kts 283°
2026-05-04 09:21 40.29951 49.08485 22145 ft 425 kts 283°
2026-05-04 09:21 40.30929 49.04725 22800 ft 431 kts 283°
2026-05-04 09:22 40.31871 49.01064 23401 ft 436 kts 283°
2026-05-04 09:22 40.32845 48.97248 24041 ft 440 kts 283°
2026-05-04 09:22 40.33816 48.93435 24773 ft 442 kts 283°
2026-05-04 09:22 40.34728 48.89850 25408 ft 444 kts 283°
2026-05-04 09:23 40.35645 48.86232 25963 ft 448 kts 283°
2026-05-04 09:23 40.36645 48.82282 26527 ft 454 kts 283°
2026-05-04 09:23 40.37653 48.78294 27160 ft 457 kts 283°
2026-05-04 09:23 40.38663 48.74289 27836 ft 460 kts 283°
2026-05-04 09:25 40.45749 48.46009 31854 ft 463 kts 283°
2026-05-04 09:25 40.46757 48.41964 31860 ft 459 kts 284°
2026-05-04 09:26 40.48741 48.33964 31868 ft 459 kts 283°
2026-05-04 09:26 40.50713 48.25991 31875 ft 459 kts 283°
2026-05-04 09:27 40.52676 48.18024 31880 ft 460 kts 283°
2026-05-04 09:27 40.54644 48.10031 31886 ft 460 kts 283°
2026-05-04 09:28 40.56627 48.01965 31896 ft 460 kts 283°
2026-05-04 09:28 40.58252 47.93919 31908 ft 454 kts 274°
2026-05-04 09:29 40.58647 47.85664 31902 ft 452 kts 269°
2026-05-04 09:29 40.58917 47.77355 31893 ft 451 kts 269°
2026-05-04 09:30 40.59180 47.69073 31901 ft 452 kts 269°
2026-05-04 09:30 40.59441 47.60693 31898 ft 449 kts 269°
2026-05-04 09:31 40.59694 47.52377 31890 ft 449 kts 269°
2026-05-04 09:31 40.59938 47.44156 31900 ft 449 kts 269°
2026-05-04 09:32 40.60177 47.35912 31885 ft 448 kts 268°
2026-05-04 09:34 40.61809 47.07096 33886 ft 448 kts 273°
2026-05-04 09:34 40.62229 47.03064 33884 ft 448 kts 273°
2026-05-04 09:34 40.63071 46.94875 33880 ft 447 kts 273°
2026-05-04 09:35 40.63892 46.86806 33884 ft 447 kts 273°
2026-05-04 09:35 40.64714 46.78660 33883 ft 447 kts 273°
2026-05-04 09:37 40.67939 46.46044 33897 ft 448 kts 273°
2026-05-04 09:38 40.68732 46.37864 33890 ft 450 kts 273°
2026-05-04 09:38 40.69521 46.29678 33897 ft 448 kts 272°
2026-05-04 09:39 40.70300 46.21523 33892 ft 448 kts 272°
2026-05-04 09:39 40.71077 46.13324 33904 ft 449 kts 272°
2026-05-04 09:40 40.71847 46.05141 33913 ft 450 kts 272°
2026-05-04 09:40 40.72613 45.96930 33925 ft 450 kts 272°
2026-05-04 09:42 40.75626 45.64017 33963 ft 453 kts 272°
2026-05-04 09:43 40.76365 45.55786 33963 ft 450 kts 272°
2026-05-04 09:43 40.77045 45.47823 33948 ft 449 kts 270°
2026-05-04 09:44 40.77409 45.39549 33963 ft 449 kts 269°
2026-05-04 09:46 40.78836 45.06667 33985 ft 448 kts 269°
2026-05-04 09:46 40.79190 44.98402 33987 ft 449 kts 269°
2026-05-04 09:47 40.79534 44.90229 33994 ft 451 kts 269°
2026-05-04 09:49 40.80873 44.57154 34000 ft 452 kts 269°
2026-05-04 09:51 40.81974 44.28068 34004 ft 453 kts 269°
2026-05-04 09:51 40.82274 44.19777 33992 ft 453 kts 269°
2026-05-04 09:52 40.82570 44.11431 33996 ft 456 kts 269°
2026-05-04 09:52 40.82859 44.03095 33987 ft 454 kts 269°
2026-05-04 09:53 40.83144 43.94738 33969 ft 455 kts 269°
2026-05-04 09:53 40.83423 43.86337 33969 ft 456 kts 269°
2026-05-04 09:54 40.83697 43.77974 33970 ft 456 kts 269°
2026-05-04 09:54 40.83965 43.69601 33962 ft 455 kts 269°
2026-05-04 09:55 40.84372 43.61262 33987 ft 456 kts 271°
2026-05-04 09:55 40.84860 43.52841 34000 ft 458 kts 270°
2026-05-04 09:56 40.85333 43.44442 34004 ft 456 kts 270°
2026-05-04 09:56 40.85793 43.36080 34009 ft 458 kts 270°
2026-05-04 09:57 40.86247 43.27687 34014 ft 457 kts 270°
2026-05-04 09:57 40.86691 43.19325 34010 ft 458 kts 269°
2026-05-04 09:58 40.87131 43.10921 34018 ft 457 kts 269°
2026-05-04 09:58 40.87564 43.02494 34014 ft 459 kts 269°
2026-05-04 10:00 40.89250 42.68567 33989 ft 460 kts 269°
2026-05-04 10:04 40.91970 42.08892 33910 ft 467 kts 269°
2026-05-04 10:04 40.92336 42.00296 33925 ft 470 kts 269°
2026-05-04 10:05 40.92698 41.91653 33900 ft 469 kts 269°
2026-05-04 10:05 40.93055 41.82976 33898 ft 471 kts 269°
2026-05-04 10:06 40.93406 41.74306 33880 ft 472 kts 269°
2026-05-04 10:06 40.93749 41.65651 33893 ft 471 kts 269°
2026-05-04 10:08 40.94901 41.35241 33917 ft 475 kts 269°
2026-05-04 10:08 40.95218 41.26498 33920 ft 474 kts 268°
2026-05-04 10:09 40.95526 41.17788 33921 ft 476 kts 268°
2026-05-04 10:09 40.95831 41.08998 33914 ft 477 kts 268°
2026-05-04 10:10 40.96127 41.00282 33895 ft 476 kts 268°
2026-05-04 10:10 40.96418 40.91511 33880 ft 478 kts 268°
2026-05-04 10:11 40.96703 40.82730 33859 ft 477 kts 268°
2026-05-04 10:11 40.96980 40.73965 33837 ft 479 kts 268°
2026-05-04 10:12 40.97251 40.65163 33837 ft 482 kts 267°
2026-05-04 10:12 40.97518 40.56308 33830 ft 481 kts 267°
2026-05-04 10:13 40.97778 40.47442 33841 ft 483 kts 267°
2026-05-04 10:13 40.98030 40.38609 33829 ft 482 kts 267°
2026-05-04 10:14 40.98277 40.29724 33828 ft 485 kts 266°
2026-05-04 10:16 40.99190 39.93995 33847 ft 490 kts 266°
2026-05-04 10:16 40.99403 39.84981 33853 ft 489 kts 266°
2026-05-04 10:17 40.99848 39.76045 33876 ft 491 kts 272°
2026-05-04 10:19 41.03303 39.39897 33839 ft 497 kts 272°
2026-05-04 10:19 41.04156 39.30747 33830 ft 497 kts 272°
2026-05-04 10:20 41.04992 39.21696 33822 ft 496 kts 272°
2026-05-04 10:20 41.05819 39.12647 33825 ft 497 kts 272°
2026-05-04 10:21 41.06659 39.03581 33851 ft 501 kts 272°
2026-05-04 10:21 41.07517 38.94268 33844 ft 498 kts 272°
2026-05-04 10:22 41.08783 38.80333 33840 ft 500 kts 272°
2026-05-04 10:23 41.09614 38.71085 33839 ft 500 kts 272°
2026-05-04 10:25 41.12781 38.33618 33817 ft 499 kts 272°
2026-05-04 10:25 41.13526 38.24540 33826 ft 499 kts 272°
2026-05-04 10:26 41.14281 38.15321 33838 ft 499 kts 272°
2026-05-04 10:26 41.15025 38.06138 33804 ft 502 kts 272°
2026-05-04 10:27 41.15765 37.96936 33838 ft 498 kts 272°
2026-05-04 10:27 41.16499 37.87696 33823 ft 502 kts 272°
2026-05-04 10:28 41.17274 37.78546 33805 ft 504 kts 273°
2026-05-04 10:28 41.18077 37.69106 33813 ft 504 kts 273°
2026-05-04 10:29 41.18847 37.59798 33800 ft 504 kts 272°
2026-05-04 10:29 41.19375 37.50412 33801 ft 504 kts 273°
2026-05-04 10:30 41.20074 37.41040 33799 ft 506 kts 273°
2026-05-04 10:30 41.20766 37.31700 33780 ft 510 kts 273°
2026-05-04 10:31 41.21448 37.22397 33783 ft 508 kts 273°
2026-05-04 10:32 41.23970 36.89679 33753 ft 510 kts 274°
2026-05-04 10:33 41.24677 36.80284 33782 ft 512 kts 274°
2026-05-04 10:33 41.25378 36.70874 33750 ft 513 kts 274°
2026-05-04 10:34 41.26070 36.61456 33786 ft 515 kts 274°
2026-05-04 10:34 41.27267 36.52111 33761 ft 513 kts 286°
2026-05-04 10:35 41.29538 36.43098 33770 ft 520 kts 288°
2026-05-04 10:35 41.31855 36.34040 33762 ft 518 kts 287°
2026-05-04 10:36 41.34152 36.25005 33776 ft 519 kts 287°
2026-05-04 10:36 41.36446 36.15939 33769 ft 520 kts 287°
2026-05-04 10:37 41.38756 36.06766 33768 ft 522 kts 287°
2026-05-04 10:37 41.41037 35.97673 33786 ft 520 kts 288°
2026-05-04 10:39 41.49000 35.65633 33790 ft 520 kts 288°
2026-05-04 10:40 41.51252 35.56493 33782 ft 522 kts 288°
2026-05-04 10:40 41.53510 35.47289 33760 ft 522 kts 288°
2026-05-04 10:41 41.55753 35.38111 33800 ft 523 kts 288°
2026-05-04 10:41 41.58000 35.28880 33734 ft 523 kts 288°
2026-05-04 10:42 41.60244 35.19626 33726 ft 523 kts 288°
2026-05-04 10:42 41.62456 35.10466 33780 ft 519 kts 288°
2026-05-04 10:43 41.64677 35.01233 33783 ft 523 kts 288°
2026-05-04 10:45 41.73526 34.64070 33750 ft 524 kts 289°
2026-05-04 10:45 41.75713 34.54791 33763 ft 526 kts 289°
2026-05-04 10:46 41.77897 34.45484 33756 ft 525 kts 289°
2026-05-04 10:46 41.80101 34.36057 33756 ft 528 kts 289°
2026-05-04 10:47 41.82292 34.26644 33730 ft 526 kts 288°
2026-05-04 10:47 41.84446 34.17352 33748 ft 526 kts 289°
2026-05-04 10:49 41.93041 33.79882 33777 ft 526 kts 289°
2026-05-04 10:50 41.95173 33.70489 33787 ft 526 kts 289°
2026-05-04 10:52 42.02512 33.32313 33769 ft 525 kts 286°
2026-05-04 10:52 42.04300 33.22865 33751 ft 526 kts 286°
2026-05-04 10:54 42.11806 32.84895 33765 ft 525 kts 288°
2026-05-04 10:56 42.19439 32.47049 33821 ft 521 kts 288°
2026-05-04 10:57 42.21343 32.37469 33842 ft 520 kts 289°
2026-05-04 10:57 42.23212 32.28022 33837 ft 518 kts 288°
2026-05-04 10:58 42.25079 32.18538 33849 ft 517 kts 288°
2026-05-04 10:58 42.26931 32.09050 33838 ft 520 kts 288°
2026-05-04 10:59 42.28827 31.99350 33857 ft 516 kts 288°
2026-05-04 10:59 42.30701 31.89726 33910 ft 519 kts 288°
2026-05-04 11:00 42.32555 31.80148 33880 ft 517 kts 288°
2026-05-04 11:02 42.39894 31.41778 33903 ft 517 kts 288°
2026-05-04 11:05 42.52963 30.71412 33938 ft 518 kts 288°
2026-05-04 11:06 42.54668 30.62029 33952 ft 519 kts 288°
2026-05-04 11:06 42.56389 30.52508 33956 ft 520 kts 288°
2026-05-04 11:08 42.64731 30.20923 33974 ft 501 kts 315°
2026-05-04 11:10 42.80716 29.96390 33975 ft 499 kts 317°
2026-05-04 11:12 42.98916 29.68292 33987 ft 499 kts 316°
2026-05-04 11:12 43.03458 29.61237 33988 ft 498 kts 316°
2026-05-04 11:13 43.07922 29.54286 33990 ft 501 kts 316°
2026-05-04 11:13 43.12494 29.47149 33997 ft 499 kts 316°
2026-05-04 11:14 43.13255 29.45959 34001 ft 499 kts 316°